Location: Palo Duro Canyon State Park
(34.9073°N, 101.6424°W)
Time: 20:14:59
(UTC-06:00)

N. Korean satellite - Visible Passes

Search period start: 22 November 2019 00:00
Search period end: 02 December 2019 00:00
Orbit: 456 x 506 km, 97.2° (Epoch: 22 November)

Date Brightness Start Highest point End Pass type
(mag) Time Alt. Az. Time Alt. Az. Time Alt. Az.
22 Nov 6.5 06:46:35 10° N 06:50:13 65° WNW 06:53:47 10° SSW visible
22 Nov 9.9 18:53:09 10° SW 18:55:21 15° W 18:57:36 10° NW visible
23 Nov 7.5 06:21:15 10° NNE 06:24:51 52° E 06:28:21 10° S visible
23 Nov 8.6 18:26:32 10° SSW 18:29:50 33° W 18:33:12 10° NNW visible
24 Nov 9.2 05:56:25 10° NE 05:59:22 23° E 06:02:16 10° SSE visible
24 Nov 6.8 18:00:46 10° S 18:04:24 78° WSW 18:08:07 10° NNW visible
25 Nov 10.2 05:33:03 10° E 05:33:47 10° E 05:34:32 10° ESE visible
26 Nov 6.5 06:38:21 10° N 06:42:00 85° WNW 06:45:34 10° SSW visible
26 Nov 9.6 18:44:22 10° SW 18:47:04 20° W 18:49:49 10° NW visible
27 Nov 8.1 06:13:09 10° NNE 06:16:34 39° E 06:19:55 10° SSE visible
27 Nov 8.1 18:18:05 10° S 18:21:35 42° W 18:25:08 10° NNW visible
28 Nov 9.6 05:48:33 10° NE 05:51:03 18° E 05:53:32 10° SE visible
29 Nov 6.8 06:55:37 10° N 06:59:05 46° WNW 07:02:29 10° SSW visible
29 Nov 10.2 19:02:57 10° WSW 19:04:20 12° W 19:05:42 10° WNW visible
30 Nov 6.8 06:30:07 10° NNE 06:33:43 72° E 06:37:13 10° S visible
30 Nov 9.2 18:35:41 10° SSW 18:38:45 25° W 18:41:52 10° NW visible
01 Dec 8.6 06:05:03 10° NE 06:08:15 30° E 06:11:23 10° SSE visible
01 Dec 7.5 18:09:39 10° S 18:13:17 56° W 18:16:57 10° NNW visible
